| time (UTC) | temp F | wind direction | speed MPH | gust MPH | rain 1hr in | rain 24hr in | rain mn in | humidity % | barometer mb |
| 20260503214519 | 56 | 315 | 3.0 | 9.0 | 0.00 | 0.00 | 0.00 | 39 | 1009.3 |
| 20260503213028 | 56 | 261 | 2.0 | 11.0 | 0.00 | 0.00 | 0.00 | 40 | 1009.0 |
| 20260503211520 | 56 | 319 | 5.0 | 14.0 | 0.00 | 0.00 | 0.00 | 38 | 1008.9 |
| 20260503210018 | 56 | 236 | 4.0 | 18.0 | 0.00 | 0.00 | 0.00 | 39 | 1008.9 |
| 20260503204524 | 57 | 224 | 5.0 | 13.0 | 0.00 | 0.00 | 0.00 | 36 | 1008.9 |
| 20260503203017 | 57 | 289 | 4.0 | 12.0 | 0.00 | 0.00 | 0.00 | 38 | 1008.7 |
| 20260503201526 | 56 | 290 | 4.0 | 14.0 | 0.00 | 0.00 | 0.00 | 38 | 1008.7 |
| 20260503200016 | 56 | 309 | 4.0 | 18.0 | 0.00 | 0.00 | 0.00 | 38 | 1008.6 |
| 20260503194520 | 56 | 227 | 7.0 | 17.0 | 0.00 | 0.00 | 0.00 | 36 | 1008.8 |
| 20260503193014 | 57 | 299 | 8.0 | 25.0 | 0.00 | 0.00 | 0.00 | 37 | 1008.7 |
| 20260503191515 | 57 | 301 | 3.0 | 11.0 | 0.00 | 0.00 | 0.00 | 39 | 1008.5 |
| 20260503190019 | 57 | 336 | 1.0 | 15.0 | 0.00 | 0.00 | 0.00 | 42 | 1008.7 |
| 20260503184512 | 56 | 254 | 6.0 | 15.0 | 0.00 | 0.00 | 0.00 | 41 | 1008.8 |
| 20260503183013 | 56 | 337 | 4.0 | 13.0 | 0.00 | 0.00 | 0.00 | 42 | 1008.9 |
| 20260503181517 | 55 | 253 | 4.0 | 15.0 | 0.00 | 0.00 | 0.00 | 43 | 1009.1 |
| 20260503180006 | 56 | 304 | 5.0 | 17.0 | 0.00 | 0.00 | 0.00 | 41 | 1009.0 |
| 20260503174504 | 54 | 259 | 7.0 | 16.0 | 0.00 | 0.00 | 0.00 | 45 | 1008.9 |
| 20260503173011 | 53 | 360 | 4.0 | 14.0 | 0.00 | 0.00 | 0.00 | 50 | 1008.9 |
| 20260503171502 | 54 | 261 | 4.0 | 18.0 | 0.00 | 0.00 | 0.00 | 50 | 1008.9 |
| 20260503170105 | 54 | 300 | 3.0 | 18.0 | 0.00 | 0.00 | 0.00 | 46 | 1008.8 |
| 20260503081510 | 46 | 348 | 3.0 | 12.0 | 0.00 | 0.00 | 0.00 | 59 | 1007.9 |
| 20260503071601 | 48 | 40 | 3.0 | 14.0 | 0.00 | 0.00 | 0.00 | 59 | 1008.2 |
| 20260503060109 | 49 | 18 | 4.0 | 11.0 | 0.00 | 0.00 | 0.00 | 60 | 1008.6 |
| 20260503054544 | 49 | 48 | 7.0 | 17.0 | 0.00 | 0.00 | 0.00 | 59 | 1008.7 |
| 20260503053042 | 49 | 30 | 2.0 | 8.0 | 0.00 | 0.00 | 0.00 | 61 | 1008.9 |
| 20260503051536 | 49 | 325 | 3.0 | 10.0 | 0.00 | 0.00 | 0.00 | 62 | 1009.4 |
| 20260503050036 | 49 | 26 | 2.0 | 11.0 | 0.00 | 0.00 | 0.00 | 64 | 1009.4 |
| 20260503044604 | 49 | 17 | 4.0 | 12.0 | 0.00 | 0.00 | 0.00 | 68 | 1009.1 |
| 20260503043028 | 49 | 22 | 3.0 | 11.0 | 0.00 | 0.00 | 0.00 | 74 | 1009.6 |
| 20260503041525 | 48 | 36 | 3.0 | 10.0 | 0.00 | 0.00 | 0.00 | 85 | 1009.6 |
| 20260503040022 | 48 | 34 | 3.0 | 11.0 | 0.00 | 0.00 | 0.00 | 91 | 1009.7 |
| 20260503034520 | 48 | 36 | 2.0 | 5.0 | 0.00 | 0.00 | 0.00 | 91 | 1009.6 |
| 20260503033018 | 48 | 121 | 0.0 | 0.0 | 0.00 | 0.00 | 0.00 | 91 | 1009.6 |
| 20260503031518 | 48 | 121 | 0.0 | 3.0 | 0.00 | 0.00 | 0.00 | 91 | 1009.6 |
| 20260503030017 | 48 | 182 | 0.0 | 0.0 | 0.00 | 0.00 | 0.00 | 90 | 1009.7 |
| 20260503024514 | 48 | 182 | 0.0 | 0.0 | 0.00 | 0.00 | 0.00 | 90 | 1009.9 |
| 20260503023012 | 48 | 182 | 0.0 | 0.0 | 0.00 | 0.00 | 0.00 | 90 | 1009.7 |
| 20260503021517 | 49 | 182 | 0.0 | 0.0 | 0.00 | 0.00 | 0.00 | 90 | 1009.8 |
| 20260503020013 | 49 | 182 | 0.0 | 0.0 | 0.00 | 0.00 | 0.00 | 90 | 1009.9 |
| 20260503014510 | 49 | 182 | 0.0 | 0.0 | 0.00 | 0.00 | 0.00 | 90 | 1009.9 |
| 20260503013008 | 49 | 182 | 0.0 | 0.0 | 0.00 | 0.00 | 0.00 | 90 | 1010.0 |
| 20260503011510 | 49 | 182 | 0.0 | 0.0 | 0.00 | 0.00 | 0.00 | 89 | 1009.9 |
| 20260503010007 | 49 | 182 | 0.0 | 2.0 | 0.00 | 0.00 | 0.00 | 89 | 1010.0 |
| 20260503004507 | 50 | 182 | 0.0 | 0.0 | 0.00 | 0.00 | 0.00 | 89 | 1009.8 |
| 20260503003006 | 50 | 182 | 0.0 | 0.0 | 0.00 | 0.00 | 0.00 | 88 | 1009.8 |
| 20260503001508 | 50 | 182 | 0.0 | 0.0 | 0.00 | 0.00 | 0.00 | 88 | 1009.7 |
| 20260503000013 | 51 | 182 | 0.0 | 0.0 | 0.00 | 0.00 | 0.00 | 88 | 1009.6 |
| 20260502234508 | 51 | 182 | 0.0 | 0.0 | 0.00 | 0.00 | 0.00 | 88 | 1009.4 |
| 20260502233005 | 51 | 182 | 0.0 | 0.0 | 0.00 | 0.00 | 0.00 | 87 | 1009.6 |
| 20260502231504 | 51 | 182 | 0.0 | 0.0 | 0.00 | 0.00 | 0.00 | 87 | 1009.6 |
| 20260502230004 | 52 | 182 | 0.0 | 2.0 | 0.00 | 0.00 | 0.00 | 87 | 1009.7 |
| 20260502224504 | 52 | 182 | 0.0 | 0.0 | 0.00 | 0.00 | 0.00 | 86 | 1009.8 |
| 20260502223003 | 52 | 182 | 0.0 | 0.0 | 0.00 | 0.00 | 0.00 | 87 | 1009.6 |
| 20260502221502 | 52 | 182 | 0.0 | 2.0 | 0.00 | 0.00 | 0.00 | 87 | 1009.6 |
| 20260502220001 | 52 | 182 | 0.0 | 0.0 | 0.00 | 0.00 | 0.00 | 87 | 1009.6 |